User: anonymous   Login
Location: Unspecified
(0.0000°N, 0.0000°E)
Time: 00:25:36
(UTC+00:00)
Language:

SBSS (USA 216) - Orbit

View from above orbital plane
View from above orbital plane
View from above satellite
View from above satellite

Ground track
Ground track

The orbit data is extracted from the following two-line orbital elements,

1 37168U 10048A   17085.81420024 0.00000050  00000-0  64052-5 0    00
2 37168  97.9016 311.8682 0002028 127.7072 232.2927 14.81380970    04
Epoch (UTC): 26 March 2017 19:32:26
Eccentricity: 0.0002028
inclination: 97.9016°
perigee height: 623 km
apogee height: 626 km
right ascension of ascending node: 311.8682°
argument of perigee: 127.7072°
revolutions per day: 14.81380970
mean anomaly at epoch: 232.2927°
orbit number at epoch: 0

The dashed part of the orbit path shows where the satellite is in the earth's shadow,  

DLR